Iridium Next SV176

operational
NORAD ID: 43923 Int'l Des: 2019-002 Owner: IRIDS Country: US Constellation: Iridium NEXT
LEOCIRCULARPOLAR

关于 Iridium Next SV176

正在加载描述...

实时位置

正在加载3D地球...

即将过境

高度历史

Altitude vs Time

uPlot chart will show altitude changes over time

两行轨道根数

1 43923U 19002B 25351.75319543 .00000844 00000-0 12987-3 0 9992
2 43923 86.6086 69.4153 0002338 95.6941 264.4543 14.72254423372559
Epoch: Dec 17, 2025 • Age: 14 hours

当前状态

高度 656.1 km
速度 7.53 km/s
星下点 22.92°N, 43°E
发射日期 Jan 11, 2019
运行时间 6.9 years
类型 communications

技术详情

分类 Payload
质量 860.00 kg
干质量 700.00 kg
总质量 860.00 kg
长度 3.10 m
直径 1.50 m
跨度 9.40 m
形状 Half Hex Prism+2 pan
制造商 NGISGA
平台类型 EliteBus
阶段状态 In Orbit
所有者/国家 IRIDS/US

大型星座

Loading constellations...